Regional Weather Roundup
Issued by NWS

Home | Current Version | Previous Version | Graphics & Text | Print | Product List | Glossary On
Versions: 1 2 3 4 5 6 7 8 9 10 11 12 13 14 15 16 17 18 19 20 21 22 23 24 25 26 27 28 29 30 31 32 33 34 35 36 37 38 39 40 41 42 43 44 45 46 47 48 49 50
000
ASUS43 KDTX 270501
RWRMI
MICHIGAN HOURLY REGIONAL WEATHER ROUNDUP
NATIONAL WEATHER SERVICE DETROIT/PONTIAC MI
100 AM EDT FRI MAR 27 2015

NOTE: "FAIR" INDICATES FEW OR NO CLOUDS BELOW 12,000 FEET WITH NO
SIGNIFICANT WEATHER AND/OR OBSTRUCTION TO VISIBILITY.

MIZ047>049-052>055-059>063-066>070-074>076-081>083-270600-
SOUTHEAST LOWER MICHIGAN

CITY           SKY/WX    TMP DP  RH WIND       PRES   REMARKS
ADRIAN         CLOUDY    33  24  69 N9        29.96S WCI  25
ALMA           MOCLDY    23  14  67 NW15G21   30.02R WCI  10
ANN ARBOR      CLOUDY    33  23  66 NW9       29.95R WCI  25
BAD AXE        LGT SNOW  25  21  83 NW14G20   29.95R WCI  13
CARO           CLOUDY    25  17  72 NW17G24   29.97R WCI  11
DETROIT CITY   CLOUDY    36  22  56 NW10      29.93S WCI  28
DETROIT        FLURRIES  35  24  64 NW10      29.94S WCI  27
FLINT          CLOUDY    30  18  60 NW10      29.97R WCI  21
GROSSE ILE     CLOUDY    36  25  64 W12       29.93R WCI  27
HILLSDALE      CLOUDY    32  24  72 NW10      29.94S WCI  23
HOWELL         CLOUDY    30  22  74 N6        29.95S WCI  24

CITY           SKY/WX    TMP DP  RH WIND       PRES   REMARKS
LAMBERTVILLE   CLOUDY    36  27  69 NW5       29.96R WCI  32
LANSING        CLOUDY    28  18  66 NW14      29.99R WCI  17
LAPEER         CLOUDY    28  19  69 NW8       29.94S WCI  20
MASON          CLOUDY    29  19  65 NW7       29.96S WCI  22
MONROE         CLOUDY    36  25  64 NW9       29.93S WCI  29
MT. CLEMENS    FRZ RAIN  32  27  81 N13       29.91R WCI  23
PONTIAC        CLOUDY    30  22  72 NW16      29.93R WCI  19
PORT HOPE        N/A     26  20  77 NW15      29.92R WCI  14
PORT HURON     CLOUDY    30  23  74 NW14G20   29.93R WCI  20
TRI CITIES     CLOUDY    24  14  65 NW20G26   30.00R WCI  10
TROY           CLOUDY    34  23  64 NW10G16   29.95R WCI  26
SAGINAW HB     CLOUDY    27  18  69 NW16      29.99R WCI  14
$$
MIZ043>046-050>051-056>058-064>065-071>073-077>080-270600-
SOUTHWEST LOWER MICHIGAN

CITY           SKY/WX    TMP DP  RH WIND       PRES   REMARKS
BATTLE CREEK   CLOUDY    30  22  72 NW8       29.99R WCI  22
BENTON HARBOR  CLOUDY    29  25  85 VRB7      30.04S WCI  22
BIG RAPIDS     LGT SNOW  22  16  76 N14       30.02R WCI   9
COLDWATER      CLOUDY    32  23  70 NW9       29.98R WCI  24
FREMONT        MOCLDY    22  11  63 N10G21    30.05S WCI  11
HOLLAND        CLOUDY    29  18  63 NW9       30.05R WCI  20
GRAND RAPIDS   CLOUDY    27  16  63 NW16      30.02R WCI  15
IONIA          CLOUDY    28  17  64 N9        30.00R WCI  19
KALAMAZOO      FLURRIES  30  22  72 N14       30.00S WCI  19
LUDINGTON      CLOUDY    24  12  60 N12G25    30.09R WCI  13
MARSHALL       CLOUDY    30  20  68 NW5       29.97S WCI  25
MOUNT PLEASANT CLOUDY    23  13  66 NW7       30.01S WCI  14
MUSKEGON       PTCLDY    24  13  62 N14       30.09R WCI  12
SOUTH HAVEN    CLOUDY    30  22  71 N9G16     30.04R WCI  22
$$
MIZ016>042-270600-
NORTHERN LOWER MICHIGAN

CITY           SKY/WX    TMP DP  RH WIND       PRES   REMARKS
ALPENA         LGT SNOW  21  17  84 NW10      29.95S FOG     WCI  10
BEAVER ISLAND  CLOUDY    19  11  73 N13G21    30.07R WCI   5
BELLAIRE       FLURRIES  18  13  79 NW3       30.07R
CADILLAC       LGT SNOW  19  13  79 NW13G20   30.00R WCI   5
CHARLEVOIX     CLOUDY    20  15  81 N15G22    30.08S WCI   6
FRANKFORT      CLOUDY    24   8  50 N9G17     30.09R WCI  15
GAYLORD        LGT SNOW  15  12  88 NW8G16    29.96S FOG     WCI   4
GRAYLING       FLURRIES  17  11  76 NW16G23   29.99S WCI   2
HARBOR SPRINGS FLURRIES  18  12  76 N9        30.03S WCI   7
HOUGHTON LAKE  FLURRIES  18  10  71 NW12G22   29.98S WCI   5
MANISTEE       CLOUDY    21  10  63 N12G20    30.09R WCI   9
OSCODA         CLOUDY    24  16  73 NW13G18   29.94S WCI  12
PELLSTON       LGT SNOW  18  12  77 NW12      30.03R WCI   5
ROGERS CITY    LGT SNOW  22  19  89 N14G23    29.99R WCI   9
TRAVERSE CITY  CLOUDY    21  10  62 NW12      30.06S WCI   9
$$
MIZ007>008-015-270600-
EASTERN UPPER MICHIGAN

CITY           SKY/WX    TMP DP  RH WIND       PRES   REMARKS
KINROSS        MOCLDY    16  12  86 N12G17    30.02R WCI   3
MACKINAC ISLAN CLOUDY    17  13  82 N14G23    30.02R FOG     WCI   3
NEWBERRY       CLEAR     12   4  70 N12G21    30.06R WCI  -2
S. S. MARIE    CLOUDY    15   6  67 N9        30.03R WCI   3
$$
MIZ004>006-011>014-085-270600-
CENTRAL UPPER MICHIGAN

CITY           SKY/WX    TMP DP  RH WIND       PRES   REMARKS
MANISTIQUE     PTCLDY    16   7  67 N10G20    30.09R WCI   3
ESCANABA       MOCLDY    18   9  68 NW5       30.12S WCI  11
MENOMINEE      CLEAR     18   3  53 NW7       30.14S WCI   8
SAWYER-GWINN   CLOUDY    18   6  61 N17       30.08R WCI   2
$$
MIZ001>003-009>011-084-270600-
WESTERN UPPER MICHIGAN

CITY           SKY/WX    TMP DP  RH WIND       PRES   REMARKS
IRON MOUNTAIN  PTCLDY     9   2  73 NW6       30.11R WCI  -1
HOUGHTON       PTCLDY    15   2  56 N10       30.15R WCI   2
COPPER HARBOR    N/A     15   5  64 NE8       30.17R WCI   4
IRONWOOD       CLOUDY    21   3  45 N7        30.14R WCI  13
$$

ABBREVIATIONS USED IN REMARKS
   TC - TEMPERATURE IN CELSIUS
  WCI - WIND CHILL INDEX
   HX - HEAT INDEX
  VSB - VISIBILITY



USA.gov is the U.S. government's official web portal to all federal, state and local government web resources and services.